Terug naar catalogus

CZ-6A DEB

ActiefPO
NORAD 60636·DEBRIS·🇨🇳 China

Gelanceerd Aug 6, 2024 vanaf Taiyuan Satellite Launch Center

Loading…

Volgende Passages (komende 24 uur)

TLE

VersSource: Space-Track

Epoch: Sep 14, 2026, 11:31 UTC

1 60636U 24140AM  26257.47998357  .00000441  00000-0  20192-3 0  9992
2 60636  88.9904 264.3014 0047319 256.1390 103.4533 14.19225519108772

Volg CZ-6A DEB in realtime met AllMySat

Download on the App Store